KI4CGS Weather Reports


time (UTC)temp
F
wind
direction
speed
knots
gust
knots
rain 1hr
in
rain 24hr
in
rain mn
in
humidity
%
barometer
mb
20260906065519 73 258 4.3 13.0 0.00 0.00 0.00 90 1014.8
20260906065016 73 260 2.6 7.0 0.00 0.00 0.00 92 1014.9
20260906064537 73 0 0.9 4.3 0.00 0.00 0.00 92 1015.1
20260906064018 73 0 0.0 7.8 0.00 0.00 0.00 92 1015.0
20260906063518 73 321 2.6 7.8 0.00 0.00 0.00 92 1015.1
20260906063037 73 334 2.6 4.3 0.00 0.00 0.00 92 1015.3
20260906062519 73 0 0.0 0.0 0.00 0.00 0.00 92 1015.0
20260906062020 73 0 0.0 0.0 0.00 0.00 0.00 92 1014.9
20260906061538 73 0 0.0 1.7 0.00 0.00 0.00 92 1015.0
20260906061019 73 0 0.0 1.7 0.00 0.00 0.00 92 1015.1
20260906060520 73 68 0.0 1.7 0.00 0.00 0.00 92 1014.9
20260906060049 73 0 0.0 1.7 0.00 0.00 0.00 92 1014.9
20260906055520 73 68 0.0 1.7 0.00 0.00 0.00 92 1014.9
20260906055023 73 68 0.0 1.7 0.00 0.00 0.00 92 1014.6
20260906054535 73 0 0.0 1.7 0.00 0.00 0.00 92 1014.3
20260906054019 73 0 0.9 1.7 0.00 0.00 0.00 92 1014.4
20260906053520 73 0 0.0 3.5 0.00 0.00 0.00 92 1014.3
20260906053038 73 38 0.0 3.5 0.00 0.00 0.00 92 1014.2
20260906052526 73 10 1.7 3.5 0.00 0.00 0.00 92 1014.1
20260906052021 73 0 0.0 2.6 0.00 0.00 0.00 92 1014.0
20260906051536 73 360 0.9 2.6 0.00 0.00 0.00 92 1014.1
20260906051020 73 360 0.9 2.6 0.00 0.00 0.00 92 1014.2
20260906050519 73 0 0.0 0.0 0.00 0.00 0.00 92 1014.2
20260906050038 73 0 0.0 0.0 0.00 0.00 0.00 92 1014.2
20260906045521 73 0 0.0 0.0 0.00 0.00 0.00 92 1014.2
20260906045019 73 0 0.0 0.0 0.00 0.00 0.00 92 1014.3
20260906044538 73 0 0.0 0.0 0.00 0.00 0.00 91 1014.3
20260906044019 73 0 0.0 0.0 0.00 0.00 0.00 91 1014.3
20260906043520 74 0 0.0 0.0 0.00 0.00 0.00 91 1014.3
20260906043040 74 0 0.0 0.0 0.00 0.00 0.00 91 1014.4
20260906042520 74 0 0.0 0.0 0.00 0.00 0.00 91 1014.5
20260906042020 74 0 0.0 0.0 0.00 0.00 0.00 91 1014.5
20260906041537 74 0 0.0 0.0 0.00 0.00 0.00 91 1014.4
20260906041018 74 0 0.0 0.0 0.00 0.00 0.00 91 1014.5
20260906040517 74 0 0.0 0.0 0.00 0.00 0.00 91 1014.7
20260906040040 74 0 0.0 0.0 0.00 0.00 0.00 91 1014.6
20260906035519 74 0 0.0 0.0 0.00 0.00 0.00 90 1014.7
20260906035020 75 0 0.0 1.7 0.00 0.00 0.00 90 1014.8
20260906034536 75 0 0.0 1.7 0.00 0.00 0.00 90 1014.7
20260906034020 75 360 0.0 0.9 0.00 0.00 0.00 90 1014.7
20260906033520 75 0 0.0 1.7 0.00 0.00 0.00 90 1014.5
20260906033037 75 0 0.0 1.7 0.00 0.00 0.00 90 1014.7
20260906032519 75 0 0.0 0.9 0.00 0.00 0.00 89 1014.7
20260906032022 75 0 0.0 0.0 0.00 0.00 0.00 90 1014.7
20260906031603 75 0 0.0 0.0 0.00 0.00 0.00 90 1014.6
20260906031019 75 0 0.0 0.0 0.00 0.00 0.00 90 1014.7
20260906030520 75 0 0.0 0.0 0.00 0.00 0.00 89 1014.8
20260906030037 75 0 0.0 1.7 0.00 0.00 0.00 89 1014.7
20260906025521 75 0 0.0 1.7 0.00 0.00 0.00 89 1014.6
20260906025021 75 360 0.9 1.7 0.00 0.00 0.00 89 1014.5
20260906024542 76 360 0.0 0.9 0.00 0.00 0.00 89 1014.4
20260906024020 76 0 0.0 0.0 0.00 0.00 0.00 89 1014.2
20260906023520 76 0 0.0 0.0 0.00 0.00 0.00 89 1014.3
20260906023048 76 0 0.0 0.0 0.00 0.00 0.00 89 1014.2
20260906022520 76 0 0.0 0.9 0.00 0.00 0.00 88 1014.0
20260906022020 76 0 0.0 0.9 0.00 0.00 0.00 88 1013.9
20260906021536 76 0 0.0 0.9 0.00 0.00 0.00 88 1013.8
20260906021022 76 0 0.0 0.9 0.00 0.00 0.00 88 1013.8
20260906020519 76 0 0.0 1.7 0.00 0.00 0.00 87 1013.8
20260906020045 76 0 0.0 1.7 0.00 0.00 0.00 87 1013.9
20260906015518 77 360 0.0 1.7 0.00 0.00 0.00 87 1014.0
20260906015019 77 0 0.0 0.9 0.00 0.00 0.00 87 1014.0
20260906014539 77 0 0.0 0.9 0.00 0.00 0.00 87 1014.0
20260906014024 77 0 0.0 0.9 0.00 0.00 0.00 86 1013.8
20260906013519 77 0 0.0 1.7 0.00 0.00 0.00 86 1013.9
20260906013039 77 0 0.0 1.7 0.00 0.00 0.00 86 1013.9
20260906012520 77 360 0.0 1.7 0.00 0.00 0.00 86 1013.9
20260906012022 77 0 0.0 1.7 0.00 0.00 0.00 86 1013.8
20260906011538 78 0 0.0 1.7 0.00 0.00 0.00 85 1013.7
20260906011020 78 0 0.0 3.5 0.00 0.00 0.00 84 1013.6
20260906010522 78 0 0.0 3.5 0.00 0.00 0.00 84 1013.4
20260906010038 78 360 1.7 3.5 0.00 0.00 0.00 84 1013.3
20260906005520 78 18 0.0 3.5 0.00 0.00 0.00 83 1013.3
20260906005020 78 0 0.0 1.7 0.00 0.00 0.00 83 1013.3
20260906004546 78 0 0.0 1.7 0.00 0.00 0.00 83 1013.3
20260906004024 79 0 0.0 2.6 0.00 0.00 0.00 83 1013.3
20260906003518 79 0 0.9 3.5 0.00 0.00 0.00 83 1013.4
20260906003034 79 0 0.9 3.5 0.00 0.00 0.00 82 1013.2
20260906002518 79 311 0.9 3.5 0.00 0.00 0.00 81 1013.2
20260906002020 79 311 0.9 2.6 0.00 0.00 0.00 81 1013.2
20260906001544 80 307 0.0 1.7 0.00 0.00 0.00 81 1013.3
20260906001025 80 0 0.0 3.5 0.00 0.00 0.00 80 1013.4
20260906000521 80 307 0.0 3.5 0.00 0.00 0.00 80 1013.3
20260906000035 80 0 0.9 3.5 0.00 0.00 0.00 79 1013.3
20260905235519 81 317 0.0 4.3 0.00 0.00 0.00 78 1013.2
20260905235024 81 313 1.7 4.3 0.00 0.00 0.00 78 1013.4
20260905234536 81 344 0.9 2.6 0.00 0.00 0.00 78 1013.5
20260905234016 81 0 0.0 2.6 0.00 0.00 0.00 77 1013.4
20260905233520 81 0 0.0 3.5 0.00 0.00 0.00 77 1013.5
20260905233043 81 324 0.9 3.5 0.00 0.00 0.00 77 1013.5
20260905232520 81 36 0.0 2.6 0.00 0.00 0.00 78 1013.6
20260905232020 82 36 0.0 2.6 0.00 0.00 0.00 78 1013.7
20260905231539 82 35 0.0 2.6 0.00 0.00 0.00 78 1013.6
20260905231021 82 61 0.0 2.6 0.00 0.00 0.00 77 1013.6
20260905230520 83 75 0.9 2.6 0.00 0.00 0.00 76 1013.2
20260905230036 83 0 0.0 0.0 0.00 0.00 0.00 74 1013.0
20260905225520 83 0 0.0 1.7 0.00 0.00 0.00 74 1012.9
20260905225019 83 0 0.0 3.5 0.00 0.00 0.00 72 1012.8
20260905224534 84 85 1.7 4.3 0.00 0.00 0.00 70 1012.8
20260905224023 85 38 0.0 7.0 0.00 0.00 0.00 68 1012.8
20260905223516 85 246 1.7 7.0 0.00 0.00 0.00 68 1012.8
20260905223035 85 343 2.6 7.0 0.00 0.00 0.00 67 1012.5
20260905222521 86 339 2.6 7.0 0.00 0.00 0.00 66 1012.6
20260905222019 86 360 0.9 4.3 0.00 0.00 0.00 67 1012.6
20260905221549 86 0 0.9 6.1 0.00 0.00 0.00 65 1012.5
20260905221020 86 23 1.7 6.1 0.00 0.00 0.00 65 1012.9
20260905220518 86 271 0.9 11.3 0.00 0.00 0.00 65 1013.3
20260905220035 87 360 1.7 11.3 0.00 0.00 0.00 64 1013.4
20260905215520 87 330 0.9 10.4 0.00 0.00 0.00 64 1013.6
20260905215019 87 5 3.5 12.2 0.00 0.00 0.00 63 1013.6
20260905214535 88 340 5.2 17.4 0.00 0.00 0.00 61 1013.6
20260905214020 88 329 4.3 17.4 0.00 0.00 0.00 60 1013.7
20260905213520 89 348 9.6 17.4 0.00 0.00 0.00 59 1013.5
20260905213035 89 323 3.5 8.7 0.00 0.00 0.00 62 1013.4
20260905212521 89 309 3.5 8.7 0.00 0.00 0.00 63 1013.2
20260905212020 89 352 4.3 11.3 0.00 0.00 0.00 62 1013.1
20260905211535 89 325 2.6 11.3 0.00 0.00 0.00 60 1013.1
20260905211017 90 24 5.2 11.3 0.00 0.00 0.00 57 1013.1
20260905210519 90 28 3.5 10.4 0.00 0.00 0.00 57 1013.0
20260905210036 90 352 4.3 9.6 0.00 0.00 0.00 57 1013.0
20260905205519 90 22 1.7 4.3 0.00 0.00 0.00 56 1012.8
20260905205020 90 360 0.9 3.5 0.00 0.00 0.00 55 1012.9
20260905204541 91 0 0.0 4.3 0.00 0.00 0.00 52 1013.1
20260905204019 91 281 0.9 8.7 0.00 0.00 0.00 53 1013.1
20260905203516 91 337 3.5 8.7 0.00 0.00 0.00 51 1013.2
20260905203034 92 0 0.0 3.5 0.00 0.00 0.00 52 1013.1
20260905202521 92 15 0.9 4.3 0.00 0.00 0.00 51 1013.2
20260905202019 94 66 0.9 12.2 0.00 0.00 0.00 48 1013.2
20260905201534 95 0 4.3 14.8 0.00 0.00 0.00 46 1013.2
20260905201020 97 13 5.2 14.8 0.00 0.00 0.00 46 1013.4
20260905200526 98 21 4.3 10.4 0.00 0.00 0.00 46 1013.2
20260905200041 99 342 1.7 7.8 0.00 0.00 0.00 46 1013.2
20260905195519 99 331 1.7 7.8 0.00 0.00 0.00 46 1013.1
20260905195020 99 17 3.5 7.8 0.00 0.00 0.00 45 1013.1
20260905194538 99 338 3.5 7.8 0.00 0.00 0.00 47 1013.2
20260905194018 100 10 3.5 8.7 0.00 0.00 0.00 45 1013.1
20260905193520 100 340 3.5 8.7 0.00 0.00 0.00 47 1013.1
20260905193041 100 0 0.9 3.5 0.00 0.00 0.00 46 1013.0
20260905192522 100 0 0.0 3.5 0.00 0.00 0.00 44 1013.1
20260905192018 101 269 0.9 8.7 0.00 0.00 0.00 44 1013.2
20260905191533 101 9 1.7 8.7 0.00 0.00 0.00 42 1013.1
20260905191018 101 360 2.6 8.7 0.00 0.00 0.00 44 1013.2
20260905190522 101 18 0.9 4.3 0.00 0.00 0.00 47 1013.4
20260905190045 100 325 0.9 4.3 0.00 0.00 0.00 46 1013.4
20260905185517 100 164 1.7 7.8 0.00 0.00 0.00 48 1013.3
20260905185018 100 254 2.6 7.8 0.00 0.00 0.00 46 1013.4
20260905184536 100 250 1.7 7.0 0.00 0.00 0.00 48 1013.5
20260905184016 99 67 1.7 7.0 0.00 0.00 0.00 46 1013.6
20260905183518 99 339 3.5 7.0 0.00 0.00 0.00 47 1013.6
20260905183038 99 351 1.7 8.7 0.00 0.00 0.00 47 1013.7
20260905182520 99 11 2.6 8.7 0.00 0.00 0.00 48 1013.7
20260905182021 99 348 0.9 7.0 0.00 0.00 0.00 49 1013.9
20260905181537 99 344 2.6 7.0 0.00 0.00 0.00 45 1014.0
20260905181019 99 77 1.7 6.1 0.00 0.00 0.00 44 1013.9
20260905180520 99 360 0.9 8.7 0.00 0.00 0.00 45 1014.0
20260905180051 100 121 1.7 8.7 0.00 0.00 0.00 44 1014.1
20260905175519 99 352 1.7 7.8 0.00 0.00 0.00 47 1014.1
20260905175018 99 340 3.5 7.8 0.00 0.00 0.00 45 1014.3
20260905174534 99 347 2.6 5.2 0.00 0.00 0.00 47 1014.3
20260905174018 99 5 0.0 4.3 0.00 0.00 0.00 54 1014.4
20260905173518 98 79 0.9 5.2 0.00 0.00 0.00 47 1014.3
20260905173043 98 0 0.9 5.2 0.00 0.00 0.00 49 1014.4
20260905172518 98 13 0.9 5.2 0.00 0.00 0.00 47 1014.4
20260905172020 97 5 0.0 4.3 0.00 0.00 0.00 52 1014.4
20260905171548 97 319 0.9 4.3 0.00 0.00 0.00 48 1014.4
20260905171019 96 0 0.0 3.5 0.00 0.00 0.00 54 1014.4
20260905170517 96 36 0.9 3.5 0.00 0.00 0.00 54 1014.4
20260905170038 96 86 0.9 3.5 0.00 0.00 0.00 54 1014.5
20260905165522 96 69 0.0 3.5 0.00 0.00 0.00 59 1014.6
20260905165018 96 16 0.9 3.5 0.00 0.00 0.00 56 1014.7
20260905164536 95 236 0.9 3.5 0.00 0.00 0.00 58 1014.7
20260905164016 95 0 0.9 3.5 0.00 0.00 0.00 59 1014.9
20260905163520 94 0 0.0 2.6 0.00 0.00 0.00 59 1014.9
20260905163037 94 0 0.9 2.6 0.00 0.00 0.00 62 1015.1
20260905162520 94 19 0.0 2.6 0.00 0.00 0.00 60 1015.2
20260905162021 93 0 0.0 2.6 0.00 0.00 0.00 62 1015.4
20260905161536 93 18 1.7 2.6 0.00 0.00 0.00 62 1015.5
20260905161023 93 16 0.0 2.6 0.00 0.00 0.00 61 1015.5
20260905160519 92 0 0.9 1.7 0.00 0.00 0.00 64 1015.5
20260905160050 92 0 0.0 1.7 0.00 0.00 0.00 62 1015.5
20260905155517 92 0 0.0 3.5 0.00 0.00 0.00 63 1015.5
20260905155018 91 0 0.9 3.5 0.00 0.00 0.00 69 1015.5
20260905154540 91 15 0.9 3.5 0.00 0.00 0.00 65 1015.5
20260905154019 90 14 1.7 3.5 0.00 0.00 0.00 65 1015.7
20260905153519 90 5 0.9 2.6 0.00 0.00 0.00 68 1015.7
20260905153037 89 35 0.9 2.6 0.00 0.00 0.00 70 1015.7
20260905152518 88 31 0.0 2.6 0.00 0.00 0.00 71 1015.7
20260905152023 88 34 0.0 2.6 0.00 0.00 0.00 70 1015.9
20260905151538 87 33 0.0 2.6 0.00 0.00 0.00 71 1015.9
20260905151016 86 360 0.0 2.6 0.00 0.00 0.00 73 1015.9
20260905150518 86 0 0.9 4.3 0.00 0.00 0.00 74 1015.9
20260905150042 85 360 0.9 4.3 0.00 0.00 0.00 74 1016.0
20260905145521 85 344 0.9 4.3 0.00 0.00 0.00 76 1016.0
20260905145018 84 26 0.9 2.6 0.00 0.00 0.00 78 1016.1
20260905144538 83 103 0.0 2.6 0.00 0.00 0.00 80 1016.1
20260905144019 83 0 0.0 2.6 0.00 0.00 0.00 81 1016.2
20260905143519 82 0 0.9 2.6 0.00 0.00 0.00 83 1016.3
20260905143034 81 269 0.0 1.7 0.00 0.00 0.00 84 1016.3
20260905142521 80 0 0.0 1.7 0.00 0.00 0.00 88 1016.3
20260905142018 79 0 0.0 1.7 0.00 0.00 0.00 88 1016.2
20260905141538 79 275 0.0 2.6 0.00 0.00 0.00 88 1016.3
20260905141020 78 0 0.0 2.6 0.00 0.00 0.00 89 1016.3
20260905140524 78 0 0.0 0.0 0.00 0.00 0.00 89 1016.4
20260905140037 78 0 0.0 0.0 0.00 0.00 0.00 89 1016.4
20260905135520 77 0 0.0 0.0 0.00 0.00 0.00 90 1016.4
20260905135020 77 0 0.0 0.0 0.00 0.00 0.00 91 1016.4
20260905134534 76 0 0.0 0.0 0.00 0.00 0.00 92 1016.4
20260905134020 76 0 0.0 0.0 0.00 0.00 0.00 92 1016.4
20260905133517 76 0 0.0 0.0 0.00 0.00 0.00 93 1016.5
20260905133034 75 0 0.0 0.0 0.00 0.00 0.00 93 1016.5
20260905132516 75 0 0.0 0.0 0.00 0.00 0.00 93 1016.6
20260905132020 75 0 0.0 0.0 0.00 0.00 0.00 93 1016.6
20260905131534 75 0 0.0 0.0 0.00 0.00 0.00 94 1016.8
20260905131020 74 0 0.0 0.0 0.00 0.00 0.00 93 1016.8
20260905130518 74 0 0.0 0.0 0.00 0.00 0.00 94 1016.8
20260905130034 74 0 0.0 0.0 0.00 0.00 0.00 94 1016.8
20260905125519 74 0 0.0 0.0 0.00 0.00 0.00 94 1016.8
20260905125020 74 0 0.0 0.0 0.00 0.00 0.00 94 1016.8
20260905124536 73 0 0.0 0.0 0.00 0.00 0.00 94 1016.8
20260905124019 73 0 0.0 0.0 0.00 0.00 0.00 94 1016.9
20260905123518 73 0 0.0 0.0 0.00 0.00 0.00 94 1016.8
20260905123034 73 0 0.0 0.0 0.00 0.00 0.00 94 1016.8
20260905122521 73 0 0.0 0.0 0.00 0.00 0.00 94 1016.6
20260905122023 73 0 0.0 0.0 0.00 0.00 0.00 94 1016.6
20260905121540 73 0 0.0 0.0 0.00 0.00 0.00 94 1016.7
20260905121020 72 0 0.0 0.0 0.00 0.00 0.00 94 1016.5
20260905120519 72 0 0.0 0.0 0.00 0.00 0.00 94 1016.6
20260905120052 72 0 0.0 0.0 0.00 0.00 0.00 93 1016.5
20260905115520 72 0 0.0 0.0 0.00 0.00 0.00 93 1016.5
20260905115020 72 0 0.0 0.0 0.00 0.00 0.00 93 1016.6
20260905114537 72 0 0.0 0.0 0.00 0.00 0.00 93 1016.4
20260905114020 72 0 0.0 0.0 0.00 0.00 0.00 93 1016.2
20260905113521 72 0 0.0 0.0 0.00 0.00 0.00 93 1016.2
20260905113037 72 0 0.0 0.0 0.00 0.00 0.00 93 1016.3
20260905112518 72 0 0.0 0.0 0.00 0.00 0.00 93 1016.2
20260905112019 72 0 0.0 0.0 0.00 0.00 0.00 93 1016.2
20260905111607 72 0 0.0 0.0 0.00 0.00 0.00 93 1016.1
20260905111044 72 0 0.0 0.0 0.00 0.00 0.00 93 1015.9
20260905110521 72 0 0.0 0.0 0.00 0.00 0.00 93 1015.8
20260905110035 72 0 0.0 0.0 0.00 0.00 0.00 93 1015.9
20260905105521 72 0 0.0 0.0 0.00 0.00 0.00 93 1015.7
20260905105021 72 0 0.0 0.0 0.00 0.00 0.00 93 1015.7
20260905104533 72 0 0.0 0.0 0.00 0.00 0.00 93 1015.7
20260905104019 73 0 0.0 0.0 0.00 0.00 0.00 93 1015.7
20260905103518 73 0 0.0 0.0 0.00 0.00 0.00 93 1015.7
20260905103038 73 0 0.0 0.0 0.00 0.00 0.00 93 1015.7
20260905102517 73 0 0.0 0.0 0.00 0.00 0.00 93 1015.7
20260905102019 73 0 0.0 0.0 0.00 0.00 0.00 93 1015.7
20260905101535 73 0 0.0 0.0 0.00 0.00 0.00 93 1015.7
20260905101017 73 0 0.0 0.0 0.00 0.00 0.00 93 1015.6
20260905100516 73 0 0.0 0.0 0.00 0.00 0.00 92 1015.6
20260905100034 73 0 0.0 0.0 0.00 0.00 0.00 92 1015.6
20260905095515 73 0 0.0 0.0 0.00 0.00 0.00 92 1015.6
20260905095022 73 0 0.0 0.0 0.00 0.00 0.00 92 1015.6
20260905094535 73 0 0.0 0.0 0.00 0.00 0.00 92 1015.5
20260905094020 73 0 0.0 0.0 0.00 0.00 0.00 93 1015.4
20260905093522 73 0 0.0 0.0 0.00 0.00 0.00 93 1015.3
20260905093039 73 0 0.0 0.0 0.00 0.00 0.00 92 1015.2
20260905092517 73 0 0.0 0.0 0.00 0.00 0.00 92 1015.1
20260905092017 73 0 0.0 0.0 0.00 0.00 0.00 92 1015.1
20260905091537 73 0 0.0 0.0 0.00 0.00 0.00 92 1015.1
20260905091021 73 0 0.0 0.0 0.00 0.00 0.00 92 1015.2
20260905090518 73 0 0.0 0.0 0.00 0.00 0.00 92 1015.1
20260905090033 74 0 0.0 0.0 0.00 0.00 0.00 92 1015.1
20260905085518 74 0 0.0 0.0 0.00 0.00 0.00 92 1015.1
20260905085018 74 0 0.0 0.0 0.00 0.00 0.00 92 1015.1
20260905084534 74 0 0.0 0.0 0.00 0.00 0.00 92 1015.1
20260905084018 74 0 0.0 0.0 0.00 0.00 0.00 92 1015.2
20260905083522 74 0 0.0 0.0 0.00 0.00 0.00 92 1015.2
20260905083032 74 0 0.0 0.0 0.00 0.00 0.00 92 1015.3
20260905082520 74 0 0.0 0.0 0.00 0.00 0.00 92 1015.1
20260905082021 74 0 0.0 0.0 0.00 0.00 0.00 92 1015.1
20260905081535 74 0 0.0 0.0 0.00 0.00 0.00 92 1015.2
20260905081019 74 0 0.0 0.0 0.00 0.00 0.00 92 1015.3
20260905080519 74 0 0.0 0.0 0.00 0.00 0.00 92 1015.2
20260905080036 74 0 0.0 0.0 0.00 0.00 0.00 92 1015.3
20260905075515 74 0 0.0 0.0 0.00 0.00 0.00 92 1015.2
20260905075018 74 0 0.0 0.0 0.00 0.00 0.00 91 1015.1
20260905074534 74 0 0.0 0.0 0.00 0.00 0.00 92 1015.0
20260905074020 74 0 0.0 0.0 0.00 0.00 0.00 91 1015.0
20260905073520 74 0 0.0 0.0 0.00 0.00 0.00 91 1014.9
20260905073038 74 0 0.0 0.0 0.00 0.00 0.00 91 1015.0
20260905072520 74 0 0.0 0.0 0.00 0.00 0.00 91 1015.0
20260905072017 75 0 0.0 0.0 0.00 0.00 0.00 91 1015.1
20260905071538 75 0 0.0 0.0 0.00 0.00 0.00 91 1015.2
20260905071019 75 0 0.0 0.9 0.00 0.00 0.00 91 1015.2
20260905070519 75 0 0.0 1.7 0.00 0.00 0.00 91 1015.3
20260905070048 75 0 0.0 1.7 0.00 0.00 0.00 91 1015.3